This demonstration page uses our WeatherBlox Daily Observations layout. Learn more.

Hourly Observations for October 6, 2020

Temp ( °F °C ) Dew Point ( °F °C ) Humidity (%) Winds ( mph kmh ) Pressure ( in mb ) Visibility ( mi km ) Precip ( " mm )
12:54 am 00:54 Clear 52 11.1 45 7.2 77 77 Calm 30 1016 10 16.0934 0 0
1:54 am 01:54 Clear 50 10 44 6.7 80 80 Calm 29.99 1016 10 16.0934 0 0
2:54 am 02:54 Clear 48 8.9 42 5.6 80 80 Calm 29.99 1016 10 16.0934 0 0
3:54 am 03:54 Clear 47 8.3 41 5 80 80 Calm 29.99 1016 10 16.0934 0 0
4:54 am 04:54 Clear 48 8.9 42 5.6 80 80 Calm 30.01 1016 10 16.0934 0 0
5:54 am 05:54 Clear 47 8.3 42 5.6 83 83 Calm 30.03 1017 10 16.0934 0 0
6:54 am 06:54 Clear 44 6.7 40 4.4 85 85 Calm 30.04 1017 10 16.0934 0 0
7:54 am 07:54 Sunny 44 6.7 41 5 89 89 Calm 30.06 1018 10 16.0934 0 0
8:54 am 08:54 Sunny 52 11.1 45 7.2 77 77 Calm 30.07 1018 10 16.0934 0 0
9:54 am 09:54 Sunny 60 15.6 48 8.9 65 65 Calm 30.06 1018 10 16.0934 0 0
10:54 am 10:54 Sunny 69 20.6 49 9.4 49 49 SW 7 11 30.05 1018 10 16.0934 0 0
11:54 am 11:54 Sunny 77 25 47 8.3 35 35 SSW 10 17 30.02 1017 10 16.0934 0 0
12:54 pm 12:54 Sunny 80 26.7 45 7.2 29 29 SW 15 24 29.98 1015 10 16.0934 0 0
1:54 pm 13:54 Sunny 83 28.3 45 7.2 26 26 SW 14 22 29.96 1014 10 16.0934 0 0
2:54 pm 14:54 Sunny 85 29.4 44 6.7 24 24 SW 14 22 29.92 1013 10 16.0934 0 0
3:54 pm 15:54 Sunny 86 30 43 6.1 22 22 SW 17 28 29.91 1013 10 16.0934 0 0
4:54 pm 16:54 Sunny 86 30 43 6.1 22 22 SW 16 26 29.88 1012 10 16.0934 0 0
5:54 pm 17:54 Sunny 85 29.4 43 6.1 23 23 SW 13 20 29.87 1012 10 16.0934 0 0
6:54 pm 18:54 Sunny 80 26.7 44 6.7 28 28 SW 5 7 29.89 1012 10 16.0934 0 0
7:54 pm 19:54 Clear 68 20 46 7.8 45 45 SSW 8 13 29.9 1013 10 16.0934 0 0
8:54 pm 20:54 Clear 70 21.1 46 7.8 42 42 SSW 8 13 29.88 1012 10 16.0934 0 0
9:54 pm 21:54 Clear 68 20 45 7.2 44 44 SSW 8 13 29.88 1012 10 16.0934 0 0
10:54 pm 22:54 Clear 69 20.6 45 7.2 42 42 SW 9 15 29.87 1012 10 16.0934 0 0
11:54 pm 23:54 Clear 68 20 45 7.2 44 44 SW 8 13 29.87 1012 10 16.0934 0 0

Powered by AerisWeather